Regional Weather Roundup
Issued by NWS

Home | Current Version | Previous Version | Graphics & Text | Print | Product List | Glossary On
Versions: 1 2 3 4 5 6 7 8 9 10 11 12 13 14 15 16 17 18 19 20 21 22 23 24 25 26 27 28 29 30 31 32 33 34 35 36 37 38 39 40 41 42 43 44 45 46 47 48 49 50
000
ASUS45 KBOU 272207
RWRCO

WEATHER ROUNDUP FOR COLORADO
NATIONAL WEATHER SERVICE DENVER/BOULDER CO
300 PM MST TUE JAN 27 2015

NOTE: "FAIR" INDICATES FEW OR NO CLOUDS BELOW 12000 FEET WITH NO
SIGNIFICANT WEATHER AND/OR OBSTRUCTIONS TO VISIBILITY.

COZ001>005-013-030-031-272300-
...NORTHWEST COLORADO...

CITY           SKY/WX    TMP DP  RH WIND       PRES   REMARKS
CRAIG          PTSUNNY   41  27  57 S3        30.22S
HAYDEN         SUNNY     43  25  49 CALM      30.21F
MEEKER         CLOUDY    43  26  51 CALM      30.22S
MOUNT WERNER   NOT AVBL
STEAMBOAT SPGS SUNNY     42  24  48 SW3       30.22F
WALDEN         MOSUNNY   50  25  37 CALM      30.23S
$$

COZ006>008-011-272300-
...WEST CENTRAL VALLEYS...

CITY           SKY/WX    TMP DP  RH WIND       PRES   REMARKS
GRAND JUNCTION CLOUDY    49  27  42 NW12      30.25F
MONTROSE       CLOUDY    55  23  28 NW10      30.25R
EAGLE          SUNNY     46  23  39 CALM      30.25F
RIFLE          CLOUDY    50  26  39 W18       30.21F
DELTA          CLOUDY    59  26  28 W10       30.23S
NUCLA          CLOUDY    52  28  40 NW5       30.31S
$$

COZ017>023-064>068-272300-
...SOUTHWEST COLORADO...

CITY           SKY/WX    TMP DP  RH WIND       PRES   REMARKS
DURANGO        CLOUDY    48  27  44 SW5       30.30F
CORTEZ         SUNNY     56  33  42 E3        30.28F
PAGOSA SPRINGS PTSUNNY   51  21  30 SW9       30.31S
TELLURIDE      CLOUDY    41  25  51 W10       30.35R
WOLF CREEK PAS NOT AVBL
$$

COZ009-010-012-014-032>034-037-058>063-272300-
...CENTRAL COLORADO...

CITY           SKY/WX    TMP DP  RH WIND       PRES   REMARKS
ASPEN          SUNNY     48  22  35 NW6       30.23F
BUENA VISTA    SUNNY     56  17  22 SE8       30.22F
COPPER MTN     SUNNY     45   5  19 W13G20    30.40F
BERTHOUD PASS  FAIR      32  28  86 N5        30.43F WCI  27
COTTONWOOD PAS SUNNY     54  14  20 SE6       30.31S
GUNNISON       SUNNY     23  16  74 E6        30.35F WCI  16
KREMMLING      SUNNY     30  19  64 CALM      30.30F
LEADVILLE      SUNNY     48  10  21 W6        30.28F
MONARCH PASS   SUNNY     37  12  35 SW23G29   30.50F
SALIDA         SUNNY     58  16  19 S13G21    30.27S
SUNLIGHT       MOSUNNY   41  23  48 CALM      30.37F
WILKERSON PASS SUNNY     45  14  29 SW5       30.39S
$$

COZ069>075-272300-
...SAN LUIS VALLEY/SANGRE DE CRISTO MOUNTAINS...

CITY           SKY/WX    TMP DP  RH WIND       PRES   REMARKS
ALAMOSA        SUNNY     52  20  28 SE5       30.27F
LA VETA PASS   NOT AVBL
SAGUACHE       SUNNY     39  23  52 SE5       30.31S
$$

COZ035-036-038>040-272300-
...NORTHERN COLORADO FRONT RANGE...

CITY           SKY/WX    TMP DP  RH WIND       PRES   REMARKS
DENVER INTL AP PTSUNNY   71  27  19 E13       30.03F
DMNS CITY PARK   N/A     75  12   9 N5        30.01F
AURORA         PTSUNNY   73  12   9 NE6       30.04F
FRONT RANGE AP PTSUNNY   70  36  28 NE10      30.05F
ERIE MUNI ARPT SUNNY     70  18  13 N5        30.02F
BOULDER MUN AP SUNNY     70  21  16 CALM      30.03S
CENTENNIAL     MOSUNNY   72  15  11 SE6       30.04F
BROOMFIELD     MOSUNNY   72  18  13 CALM      30.05F
FORT COLLINS   MOSUNNY   70  30  23 SE5       30.04F
LONGMONT       MOSUNNY   74  20  12 NE3       30.04S
$$

COZ041-046-047-076>085-087-088-272300-
...PIKES PEAK/PALMER DIVIDE AND SOUTHERN FOOTHILLS...

CITY           SKY/WX    TMP DP  RH WIND       PRES   REMARKS
COLO. SPRINGS  MOSUNNY   66  28  24 SE13      30.10F
A. F. ACADEMY  SUNNY     66  20  17 SE9       30.10F
ELLICOTT       SUNNY    N/A N/A N/A S12       30.10F
FALCON         SUNNY     65  18  16 S8        30.14F
FORT CARSON    SUNNY     70  24  18 S10       30.06F
LIMON          MOSUNNY   71  14  11 S16       30.06F
MONUMENT HILL  SUNNY     61  19  20 S5        30.13F
TRINIDAD       SUNNY     69  27  20 N8        30.11S
$$

COZ042>045-048>051-090-091-272300-
...NORTHEAST COLORADO...

CITY           SKY/WX    TMP DP  RH WIND       PRES   REMARKS
GREELEY ARPT   MOSUNNY   64  30  27 E3        30.00F
AKRON          PTSUNNY   70  26  19 E7        30.02F
BURLINGTON     MOSUNNY   71  29  21 SW9       30.03F
WRAY           SUNNY     76  23  13 CALM      29.99F
STERLING       PTSUNNY   72  34  25 CALM      29.99F
HOLYOKE        SUNNY     79  23  12 N7        29.99F
FORT MORGAN    PTSUNNY   65  29  25 E3        30.02F
$$

COZ086-089-092>099-272300-
...SOUTHEAST COLORADO...

CITY           SKY/WX    TMP DP  RH WIND       PRES   REMARKS
PUEBLO         SUNNY     72  19  13 SE8       30.03F
LA JUNTA       PTSUNNY   72  32  23 E5        30.03F
LAMAR          MOSUNNY   72  31  22 CALM      30.01F
SPRINGFIELD    NOT AVBL
$$



USA.gov is the U.S. government's official web portal to all federal, state and local government web resources and services.